Temperature
21 21 21 21 19 18 19 21 21 21 21 21 21 20 19 19 18 18 18 18 18 18 18 18 18 18 17 17 17 17 17 17 17 17 17 17 17 18 18 18 18 17 17 18 18 18 18 18 18
22 21 21 21 18 18 20 21 21 22 22 22 21 20 19 19 19 18 18 18 18 18 18 18 18 18 17 17 17 17 17 17 17 17 17 17 17 17 17 17 17 17 17 17 17 17 17 17 18
22 21 21 18 19 19 20 21 21 22 23 22 21 20 20 19 19 18 18 18 18 18 18 18 18 18 17 17 17 17 17 17 17 17 17 17 17 17 17 17 17 17 17 17 17 17 17 17 17
22 22 21 18 20 20 21 21 22 22 22 22 21 20 19 19 19 19 18 18 18 18 18 18 18 18 17 17 17 17 17 17 17 17 17 17 17 17 17 17 17 17 17 17 17 17 17 17 17
22 21 19 19 20 21 22 23 23 22 21 21 20 19 19 19 19 19 19 18 18 18 18 18 18 18 17 17 17 17 17 17 17 17 17 17 17 17 17 17 17 17 17 17 17 17 17 17 17
22 19 18 19 21 22 22 23 23 21 21 21 20 19 19 19 19 19 19 19 19 18 18 18 18 18 17 17 17 17 17 17 17 17 17 17 17 17 17 17 17 17 17 17 17 17 17 17 17
21 18 19 20 20 21 23 23 22 21 21 21 21 19 19 19 19 19 19 19 18 18 18 18 18 17 17 17 17 17 17 17 17 17 17 17 17 17 17 17 17 16 16 16 16 16 16 16 16
23 18 20 20 21 22 23 23 23 22 22 21 21 19 19 19 19 19 19 19 18 18 18 18 18 17 17 17 17 17 17 17 17 17 16 16 16 16 16 16 16 16 16 16 16 16 16 16 16
23 18 19 20 21 22 23 23 23 23 22 21 21 21 20 20 19 19 19 19 18 18 18 18 18 17 17 17 17 17 17 17 17 17 16 16 16 16 16 16 16 16 16 16 16 16 16 16 16
22 19 20 21 21 22 23 23 23 22 21 21 21 21 20 20 19 19 19 19 19 18 18 18 18 17 17 17 17 17 17 17 17 16 16 16 16 16 16 16 16 16 16 16 16 16 16 16 16
22 20 21 22 23 23 23 23 23 21 20 21 20 20 20 20 20 19 19 19 19 19 18 18 18 18 17 17 17 17 17 17 16 16 16 16 16 16 16 16 16 16 16 16 15 15 15 15 16
22 22 23 23 23 23 23 23 22 22 22 22 22 21 20 20 20 20 19 19 19 19 18 18 18 18 17 17 17 17 17 17 17 16 16 16 16 16 16 16 16 16 15 15 15 15 15 15 15
22 22 23 23 24 24 23 23 22 22 22 22 22 21 21 20 20 20 20 19 19 19 19 18 18 18 18 17 17 17 17 17 17 16 16 16 16 16 16 16 16 16 15 15 15 15 15 15 15
23 23 23 23 23 23 23 22 22 22 22 22 21 21 21 21 20 20 20 19 19 19 19 18 18 18 18 17 17 17 17 17 17 16 16 16 16 16 16 16 16 15 15 15 15 15 15 15 15
24 22 22 22 23 23 23 21 21 22 22 21 21 21 21 21 21 20 20 20 19 19 19 19 18 18 18 18 17 17 17 17 17 16 16 16 16 16 16 16 15 15 15 15 15 15 15 15 15
22 21 21 22 22 23 22 20 21 22 22 21 21 21 21 21 21 21 20 20 20 19 19 19 18 18 18 18 17 17 17 17 17 16 16 16 16 16 16 16 15 15 15 15 15 15 15 14 15
21 20 20 21 22 22 21 20 21 22 22 21 21 21 21 21 21 21 20 20 20 19 19 19 18 18 18 18 17 17 17 17 16 16 16 16 16 16 16 16 15 15 15 15 15 15 14 14 14
20 20 21 21 22 21 21 20 20 22 21 21 21 21 21 21 21 20 20 20 20 19 19 19 18 18 18 17 17 17 17 17 16 16 16 16 16 16 16 15 15 15 15 15 15 14 14 14 14
21 21 21 21 22 22 21 20 20 21 21 20 20 21 21 21 21 20 20 20 20 19 19 19 18 18 18 17 17 17 17 17 16 16 16 16 16 16 15 15 15 15 15 15 14 14 14 14 14
22 21 21 21 22 22 20 20 20 20 20 21 21 21 20 20 20 20 20 20 20 19 19 19 18 18 18 17 17 17 17 17 16 16 16 16 16 15 15 15 15 15 15 15 14 14 14 14 14
22 21 21 21 22 21 21 19 19 20 21 21 21 21 21 20 20 20 20 20 20 19 19 19 18 18 18 17 17 17 17 16 16 16 16 16 15 15 15 15 15 15 15 14 14 14 14 14 14
21 22 22 22 20 19 20 18 19 19 19 19 20 20 20 20 20 20 20 20 19 19 19 18 18 18 17 17 17 17 17 16 16 16 16 15 15 15 15 15 15 15 14 14 14 14 14 14 14
21 22 22 22 20 19 19 18 18 19 19 19 19 20 21 20 20 20 20 20 19 19 19 18 18 18 17 17 17 17 16 16 16 16 15 15 15 15 15 15 15 15 14 14 14 14 14 14 14
22 21 20 18 18 18 19 18 18 18 19 19 19 20 20 20 20 20 20 19 19 19 19 18 18 17 17 17 17 16 16 16 16 15 15 15 15 15 15 14 14 14 14 14 14 14 14 14 14
21 18 17 18 17 17 19 18 18 19 20 20 19 20 20 20 20 20 19 19 19 19 18 18 18 17 17 17 16 16 16 16 16 15 15 15 15 15 15 14 14 14 14 14 14 14 14 14 14
20 18 18 18 18 18 19 18 19 20 20 21 21 20 20 20 20 20 19 19 19 18 18 18 17 17 17 17 16 16 16 16 16 15 15 15 15 15 15 14 14 14 14 14 14 14 14 13 13
20 18 18 17 18 18 18 19 20 20 19 19 19 19 19 20 19 19 19 19 18 18 18 18 17 17 17 16 16 16 16 16 16 15 15 15 15 15 14 14 14 14 14 14 13 13 13 13 13
21 19 16 17 18 17 18 18 18 19 18 18 18 18 19 19 19 19 19 19 18 18 18 17 17 17 17 16 16 16 16 16 15 15 15 15 15 14 14 14 14 14 14 13 13 13 13 13 13
20 20 17 16 16 17 17 17 19 18 18 18 18 19 19 19 19 19 19 18 18 18 18 17 17 17 16 16 16 16 16 15 15 15 15 15 14 14 14 14 14 14 13 13 13 13 13 13 13
20 19 17 17 17 16 16 17 19 18 18 18 18 19 19 19 19 19 18 18 18 18 17 17 17 16 16 16 16 16 15 15 15 15 15 15 14 14 14 14 14 13 13 13 13 13 13 13 13
Wind_Speed
1 1 3 3 5 6 3 1 2 2 4 5 8 9 8 6 4 4 2 5 7 5 4 5 6 7 7 7 8 8 9 9 9 9 9 9 9 8 8 8 8 8 8 9 9 9 9 9 9
1 1 3 4 5 4 2 1 4 3 5 8 8 7 7 6 4 5 3 6 7 6 5 6 7 7 7 7 8 8 8 9 9 9 9 9 9 9 8 8 8 8 9 9 9 9 9 9 9
1 1 4 4 3 4 3 2 5 3 5 5 5 5 5 4 4 4 5 8 7 6 6 6 7 7 7 8 8 8 8 8 8 9 9 9 9 8 8 8 9 9 9 9 9 10 9 9 9
3 4 5 5 4 1 5 4 5 6 6 6 6 6 4 3 5 6 8 9 8 5 6 7 8 8 8 8 8 8 9 9 9 9 9 9 9 8 8 9 9 10 9 9 9 9 9 9 9
4 4 5 4 3 1 2 5 5 6 5 5 7 6 3 1 6 9 9 9 8 5 5 7 8 8 8 8 8 8 9 9 9 9 9 9 9 9 9 9 9 10 10 9 9 9 9 9 9
4 4 5 3 2 2 3 5 7 8 7 6 7 6 2 2 6 8 9 8 8 7 5 6 8 8 8 8 8 8 9 10 10 10 10 10 9 9 9 9 9 9 9 9 9 9 9 9 8
4 4 3 3 3 3 3 5 7 7 5 4 6 6 2 2 4 8 8 8 6 6 5 5 6 7 7 8 8 9 9 9 9 9 10 10 9 9 10 9 9 9 9 8 8 8 8 8 9
5 4 3 2 3 2 1 3 5 6 4 5 6 7 5 5 6 8 7 6 6 5 5 4 5 5 5 5 7 8 8 8 8 8 8 8 8 9 9 8 8 8 8 7 7 7 7 8 9
4 5 2 2 3 2 2 5 3 4 6 4 3 6 7 9 7 8 6 4 4 5 4 4 4 5 5 4 5 6 6 6 7 6 7 6 6 6 6 7 7 7 7 7 7 7 8 8 8
5 4 3 3 4 4 3 5 4 4 6 5 5 5 8 9 8 8 7 6 5 5 5 4 5 4 5 4 4 3 3 4 5 5 4 4 5 4 5 6 7 7 6 7 8 9 8 7 7
4 5 3 1 3 4 4 2 3 7 4 6 9 9 9 8 8 7 7 7 6 6 6 5 5 5 5 3 4 3 3 3 4 4 5 5 5 4 4 4 5 5 6 6 8 8 7 6 6
4 2 3 2 2 3 4 3 3 5 7 9 11 11 10 9 9 8 7 6 6 6 6 6 6 5 4 4 3 3 3 3 3 4 6 6 3 3 3 3 3 3 5 5 5 5 6 6 6
3 3 3 3 2 3 4 4 4 3 6 9 10 9 9 8 7 7 8 7 7 6 6 6 6 5 4 3 2 3 3 3 4 5 6 6 4 3 2 2 3 3 4 4 4 4 5 5 5
4 4 3 2 2 2 5 3 4 4 7 9 9 8 8 8 8 6 6 7 6 7 7 6 7 6 6 4 3 3 3 4 4 4 5 6 5 4 3 3 3 3 4 5 5 5 4 3 4
3 3 1 1 2 3 5 1 3 6 8 8 8 8 7 7 8 8 9 8 8 7 7 6 7 6 6 5 4 4 4 5 3 4 5 6 7 6 4 3 3 3 5 6 6 5 5 4 4
2 2 1 4 2 3 6 3 6 6 9 8 7 7 7 7 7 7 8 8 8 7 7 6 6 7 6 5 4 3 4 4 3 5 6 6 7 7 5 3 3 4 5 4 4 4 4 4 3
1 2 4 4 3 3 5 4 5 6 8 8 7 7 7 6 6 6 7 8 9 8 8 7 7 6 5 4 3 4 4 3 4 5 5 5 6 7 5 3 3 5 4 3 3 3 3 3 3
4 3 3 5 4 4 4 5 5 6 8 9 8 7 7 7 7 7 8 8 8 8 8 7 6 6 5 4 3 3 2 2 2 3 4 5 6 7 6 4 4 4 4 3 3 3 3 2 2
3 2 3 5 4 3 5 5 6 7 6 7 7 7 7 8 7 6 7 7 8 7 7 7 6 6 5 4 3 2 2 1 1 2 4 5 6 7 6 4 3 3 3 3 3 3 3 2 2
2 1 2 3 3 2 3 5 5 7 8 9 10 9 9 7 5 5 6 6 7 8 7 7 6 6 5 4 3 3 3 2 2 1 3 5 6 6 5 4 3 3 3 3 3 3 2 1 2
1 2 4 3 1 2 1 4 4 4 4 5 7 8 9 11 10 8 7 6 7 8 8 7 6 6 4 4 3 3 3 3 2 2 1 1 4 5 5 4 4 3 3 3 2 3 4 3 1
3 4 4 2 2 3 1 3 6 5 4 6 7 7 8 10 9 9 8 7 8 8 7 6 7 6 5 5 5 5 4 2 1 1 1 1 2 3 4 4 4 3 3 3 2 3 3 4 2
5 3 1 1 2 1 1 2 6 1 4 7 8 9 9 10 10 10 10 9 7 7 7 7 6 6 5 5 6 6 4 2 1 1 2 1 1 1 2 4 3 3 2 2 2 2 3 3 3
2 4 5 5 4 2 5 4 5 5 8 7 7 8 8 9 9 9 8 7 6 6 7 7 7 5 5 6 6 6 6 4 4 2 2 1 0 0 0 2 2 2 2 2 2 2 2 2 2
4 5 4 4 3 5 3 3 7 7 6 8 9 8 7 8 9 9 9 8 7 7 7 6 7 5 5 5 5 6 6 6 5 4 3 2 1 1 1 1 2 2 2 2 2 2 2 2 2
3 7 6 3 4 5 2 3 5 4 1 4 6 7 7 7 8 9 9 9 8 7 7 6 6 5 5 5 5 4 5 4 4 4 4 3 3 3 3 3 3 2 2 2 1 1 1 1 2
4 3 6 6 2 2 3 3 4 4 4 4 4 5 6 7 8 9 8 8 7 7 6 7 6 5 5 5 5 4 4 4 4 4 4 3 2 2 2 2 2 2 2 2 2 1 1 1 1
5 6 5 4 2 2 3 3 3 3 3 2 2 3 5 5 7 7 8 8 7 6 5 5 6 6 5 5 5 5 4 4 4 4 3 3 3 2 2 2 2 2 2 2 2 1 1 1 1
1 2 4 4 4 4 3 5 4 6 5 4 4 4 5 6 6 6 7 7 6 6 5 5 4 4 4 4 4 4 4 4 4 4 4 4 3 3 3 3 3 3 3 2 1 1 1 2 1
4 4 6 4 3 3 3 5 4 3 4 4 3 3 3 4 5 5 5 5 5 5 4 5 5 4 5 5 4 4 4 3 3 4 4 4 4 4 4 4 4 4 3 3 3 3 2 2 2
Wind_Direction
321 32 89 58 55 53 60 46 110 68 63 66 77 87 90 73 92 128 208 144 133 136 134 108 92 87 85 83 80 79 79 78 81 83 84 82 82 83 84 92 94 92 90 88 88 88 85 82 78
350 63 67 60 79 77 48 135 94 93 130 119 85 82 82 76 93 121 132 143 135 132 125 111 101 93 89 86 85 82 80 80 82 86 87 85 83 81 79 88 95 94 93 91 90 87 85 83 78
330 74 78 69 86 135 149 172 116 88 102 104 85 59 74 106 118 135 152 141 131 123 123 116 107 99 96 93 92 88 84 81 83 88 87 86 82 79 79 88 95 97 96 93 89 86 83 83 80
63 45 54 69 76 140 157 158 127 97 70 69 96 70 59 98 139 143 144 137 131 133 135 131 116 105 101 101 101 95 89 84 84 89 89 87 83 78 84 91 96 97 96 94 91 88 84 82 82
66 69 60 64 70 63 117 124 110 91 87 82 94 97 81 45 125 136 141 141 138 143 146 137 125 116 109 104 101 97 92 89 87 89 89 86 82 82 89 92 96 94 91 90 88 85 84 81 82
54 64 79 84 72 52 75 94 93 89 104 111 105 110 125 152 127 141 144 145 145 149 152 144 133 127 119 113 110 104 99 99 96 92 90 88 84 84 89 92 94 93 89 85 83 83 84 83 81
97 83 105 122 101 68 103 113 104 109 109 124 125 108 140 180 159 141 142 142 142 142 142 141 141 135 129 124 120 117 113 108 101 94 91 89 86 85 90 90 88 86 82 80 79 80 80 81 79
124 98 71 91 113 97 106 95 112 112 107 127 121 130 168 196 164 132 132 130 134 135 138 144 144 135 131 127 128 126 120 116 107 99 97 93 87 84 88 89 87 84 81 79 80 75 77 83 79
96 82 104 172 144 144 113 97 74 84 95 92 105 148 167 160 138 122 118 116 132 138 145 146 151 153 150 146 138 129 117 114 110 102 96 92 83 80 83 88 88 84 80 75 72 71 74 76 73
90 118 189 195 164 148 121 117 123 87 83 84 88 109 133 136 134 136 142 148 154 159 167 161 162 165 165 157 144 135 117 110 111 108 100 96 88 84 86 85 82 78 69 63 65 63 65 65 65
117 151 163 137 148 135 112 89 107 116 125 153 149 153 148 143 148 153 159 161 167 168 165 168 169 168 164 157 149 140 129 123 118 121 119 111 98 84 78 72 63 61 63 59 58 57 59 67 74
117 161 149 157 145 131 134 128 102 138 182 174 163 159 155 157 164 168 167 164 154 147 155 163 166 163 164 156 150 150 146 137 125 124 128 123 112 98 92 82 74 68 71 70 65 65 65 67 70
128 162 163 177 154 158 133 134 137 162 168 158 156 149 155 165 171 176 168 159 149 144 146 149 148 147 152 137 147 131 135 134 131 121 125 126 121 113 102 95 88 84 82 82 75 73 66 62 65
172 155 165 173 152 146 138 145 128 182 156 151 151 162 167 167 166 159 157 160 159 152 151 148 142 144 137 133 133 135 140 131 117 115 123 125 128 124 115 98 81 79 85 87 84 80 74 63 66
130 109 45 272 196 175 118 56 193 186 151 154 167 173 172 173 164 163 168 167 167 163 154 149 148 140 132 129 130 130 135 128 119 114 114 122 129 127 121 107 93 93 99 96 85 77 75 70 65
77 98 201 263 203 182 128 217 236 187 154 166 182 182 178 178 170 170 163 161 161 159 153 149 142 135 132 132 132 124 127 125 122 116 114 117 126 124 113 108 104 106 101 95 90 83 81 69 64
25 197 219 249 210 176 158 214 236 190 165 177 187 186 180 178 176 174 164 160 159 159 153 145 138 138 137 132 124 124 129 125 122 113 114 117 119 121 117 115 111 107 95 91 101 89 99 93 75
227 218 216 219 228 171 188 223 220 196 175 184 189 187 182 182 192 180 165 161 158 156 150 151 145 144 137 122 103 92 89 91 104 107 113 116 118 117 117 115 112 108 98 91 99 105 93 105 108
209 212 247 244 231 177 210 224 218 204 185 181 189 188 182 190 190 174 162 151 146 147 147 155 151 155 144 136 131 130 135 125 91 98 110 115 119 123 125 120 113 110 118 127 126 120 103 97 109
218 229 264 276 256 191 225 244 230 209 204 191 187 191 185 184 170 168 156 149 154 158 157 159 161 162 157 158 161 158 149 142 124 95 97 112 122 123 127 128 128 126 119 113 122 129 130 141 131
291 199 213 225 328 4 86 320 271 247 221 200 191 187 179 177 175 172 164 158 154 159 164 160 163 158 160 151 122 99 73 56 49 59 68 90 123 125 127 133 131 134 134 141 148 152 146 164 197
239 236 205 184 100 277 163 268 276 246 227 210 202 190 182 181 175 172 168 164 165 172 166 158 159 158 155 140 133 134 134 141 185 175 150 53 101 119 131 137 136 132 135 146 164 148 150 152 173
222 242 213 197 146 306 285 186 277 240 220 221 209 199 190 182 176 173 173 172 166 164 159 159 155 154 148 142 142 139 132 150 145 129 130 122 71 113 133 140 133 133 144 155 156 136 146 158 169
182 42 35 51 78 284 237 184 260 229 216 208 203 196 188 179 174 171 169 158 155 153 153 155 153 155 157 154 154 152 150 148 136 140 159 177 232 333 57 144 142 150 154 163 168 149 147 166 164
76 79 31 4 8 257 246 182 248 252 225 194 184 183 181 172 167 165 161 158 158 155 158 156 154 161 165 159 164 165 161 159 161 168 173 175 191 222 232 167 167 169 177 177 167 145 161 173 166
168 141 153 199 231 277 323 226 267 275 203 148 156 158 159 162 163 163 165 161 159 159 161 160 164 169 170 169 173 168 163 163 170 173 175 184 199 212 207 185 181 181 180 170 158 149 178 161 168
143 172 175 154 216 269 292 298 328 22 59 90 121 139 157 170 171 169 163 159 160 160 167 176 173 172 176 177 170 164 168 170 177 178 179 185 198 204 186 190 185 183 181 172 156 182 196 142 184
155 153 98 114 168 270 293 255 235 226 200 168 154 176 180 174 173 173 168 166 167 167 172 179 176 181 184 180 177 174 180 181 181 175 181 188 197 198 176 181 174 178 183 175 157 187 205 161 201
144 116 115 128 159 167 245 271 253 209 194 184 199 196 189 179 175 174 176 175 172 171 170 169 176 179 183 187 189 180 189 189 181 184 193 191 188 188 194 197 187 190 198 199 195 220 197 186 194
174 167 141 154 225 179 183 270 314 164 158 158 169 179 183 176 172 166 163 164 169 174 174 178 183 189 198 193 188 197 201 194 187 195 203 192 190 195 198 194 188 195 197 194 194 212 213 204 202
Height
1508 1508 1508 1509 1513 1523 1526 1520 1514 1513 1513 1514 1513 1514 1517 1521 1525 1531 1527 1525 1525 1523 1522 1521 1519 1518 1517 1516 1516 1515 1515 1514 1513 1513 1513 1513 1512 1512 1512 1512 1512 1513 1513 1514 1514 1514 1514 1514 1514
1509 1509 1510 1510 1520 1533 1528 1518 1515 1512 1513 1514 1515 1517 1519 1522 1524 1525 1525 1525 1525 1524 1523 1522 1520 1519 1517 1517 1516 1516 1515 1514 1514 1513 1513 1513 1513 1512 1512 1512 1512 1513 1513 1514 1514 1514 1514 1514 1514
1510 1509 1511 1513 1523 1530 1525 1517 1514 1512 1513 1514 1517 1519 1521 1524 1525 1525 1526 1526 1526 1525 1523 1522 1521 1519 1518 1517 1517 1516 1516 1515 1515 1514 1514 1513 1513 1512 1512 1512 1512 1513 1513 1514 1514 1515 1515 1515 1515
1510 1511 1512 1519 1524 1519 1516 1514 1512 1513 1515 1516 1517 1521 1524 1525 1525 1526 1526 1527 1526 1525 1524 1523 1521 1520 1519 1518 1518 1517 1517 1516 1515 1515 1514 1514 1513 1513 1512 1512 1513 1513 1514 1514 1515 1515 1515 1516 1516
1510 1511 1518 1525 1522 1517 1513 1512 1512 1513 1516 1518 1518 1523 1525 1527 1526 1526 1527 1527 1527 1526 1525 1524 1522 1521 1520 1519 1519 1518 1518 1517 1516 1516 1516 1515 1514 1513 1513 1513 1514 1514 1515 1515 1515 1516 1516 1516 1516
1511 1513 1526 1531 1523 1517 1514 1513 1513 1516 1518 1520 1520 1523 1526 1527 1527 1527 1528 1528 1527 1527 1526 1525 1524 1523 1522 1521 1520 1520 1519 1519 1518 1518 1517 1516 1515 1515 1514 1515 1515 1515 1515 1516 1516 1517 1517 1517 1517
1513 1518 1526 1526 1524 1519 1516 1514 1514 1516 1518 1520 1521 1524 1527 1528 1528 1528 1528 1528 1528 1528 1527 1526 1525 1524 1524 1523 1522 1521 1521 1520 1520 1519 1519 1518 1517 1516 1516 1516 1516 1516 1516 1517 1517 1518 1518 1518 1518
1512 1518 1524 1525 1524 1521 1516 1515 1516 1516 1519 1520 1521 1523 1526 1527 1528 1528 1529 1529 1529 1528 1528 1527 1527 1526 1525 1525 1524 1523 1523 1522 1522 1521 1521 1520 1519 1519 1518 1518 1518 1518 1518 1518 1519 1519 1519 1519 1519
1513 1523 1529 1524 1523 1519 1516 1516 1517 1518 1519 1520 1521 1522 1524 1526 1528 1529 1529 1529 1529 1529 1529 1528 1528 1527 1527 1526 1526 1525 1524 1524 1523 1523 1522 1522 1521 1521 1520 1520 1519 1519 1519 1520 1520 1520 1520 1520 1520
1513 1525 1522 1517 1516 1516 1515 1516 1517 1519 1520 1521 1522 1523 1525 1526 1528 1528 1528 1529 1529 1529 1529 1529 1529 1528 1528 1527 1527 1526 1526 1525 1525 1524 1524 1523 1523 1523 1522 1522 1521 1521 1521 1521 1521 1521 1521 1521 1521
1513 1518 1516 1515 1514 1514 1515 1516 1517 1519 1522 1522 1522 1523 1525 1526 1527 1528 1528 1529 1529 1529 1529 1529 1529 1529 1529 1528 1528 1528 1527 1527 1526 1526 1525 1525 1525 1524 1524 1523 1523 1523 1522 1522 1522 1522 1522 1522 1522
1514 1514 1514 1514 1514 1514 1515 1516 1517 1518 1520 1520 1521 1522 1524 1525 1527 1528 1528 1528 1529 1529 1529 1529 1530 1530 1529 1529 1529 1529 1528 1528 1527 1527 1526 1526 1526 1525 1525 1525 1525 1524 1524 1524 1523 1523 1523 1523 1522
1514 1514 1514 1514 1514 1514 1515 1516 1517 1518 1519 1520 1521 1523 1524 1525 1526 1527 1528 1529 1529 1529 1529 1530 1530 1530 1530 1530 1530 1530 1529 1529 1528 1528 1528 1527 1527 1526 1526 1526 1526 1526 1525 1525 1524 1524 1524 1523 1523
1513 1513 1514 1514 1514 1514 1515 1516 1517 1518 1518 1520 1521 1522 1523 1524 1525 1526 1528 1528 1529 1529 1529 1530 1530 1530 1530 1531 1530 1530 1530 1530 1529 1529 1528 1528 1528 1527 1527 1527 1527 1527 1526 1526 1525 1525 1525 1524 1524
1512 1515 1515 1514 1513 1514 1515 1519 1517 1517 1518 1519 1520 1521 1522 1523 1524 1525 1526 1527 1528 1529 1529 1530 1530 1530 1531 1531 1531 1531 1531 1530 1530 1530 1529 1529 1528 1528 1528 1528 1527 1527 1527 1527 1526 1526 1526 1525 1525
1513 1519 1523 1516 1513 1513 1519 1526 1516 1516 1517 1518 1519 1520 1521 1522 1523 1524 1525 1526 1527 1528 1529 1530 1530 1531 1531 1531 1531 1531 1531 1531 1531 1530 1530 1530 1529 1529 1529 1528 1528 1528 1528 1527 1527 1526 1526 1526 1526
1521 1527 1525 1519 1512 1513 1517 1521 1514 1515 1515 1516 1518 1519 1520 1521 1523 1524 1524 1525 1526 1528 1528 1529 1530 1530 1531 1531 1531 1531 1531 1531 1531 1531 1530 1530 1530 1530 1529 1529 1528 1528 1528 1527 1527 1527 1526 1526 1526
1526 1524 1522 1520 1512 1513 1516 1517 1513 1513 1514 1514 1516 1517 1518 1519 1521 1522 1523 1524 1526 1527 1528 1529 1529 1530 1531 1531 1531 1531 1531 1531 1531 1531 1531 1530 1530 1530 1529 1529 1529 1528 1528 1527 1527 1527 1527 1526 1526
1515 1518 1521 1516 1509 1512 1515 1515 1512 1511 1512 1513 1513 1515 1516 1517 1519 1521 1522 1523 1525 1526 1527 1528 1528 1529 1530 1531 1531 1531 1531 1531 1531 1531 1531 1531 1530 1530 1529 1529 1528 1528 1528 1527 1527 1526 1526 1526 1526
1512 1518 1519 1514 1508 1511 1514 1514 1510 1509 1509 1509 1510 1511 1513 1515 1517 1519 1520 1522 1523 1524 1526 1527 1528 1529 1529 1530 1530 1531 1531 1531 1531 1531 1531 1531 1530 1530 1529 1529 1528 1528 1527 1527 1526 1526 1525 1525 1526
1513 1516 1516 1515 1511 1510 1515 1520 1513 1508 1507 1507 1508 1509 1511 1512 1514 1516 1518 1520 1521 1523 1524 1526 1527 1528 1529 1529 1530 1530 1530 1531 1531 1531 1531 1530 1530 1529 1529 1528 1528 1527 1527 1526 1525 1525 1525 1525 1525
1516 1508 1508 1510 1518 1524 1519 1533 1517 1509 1507 1506 1506 1507 1508 1510 1512 1514 1516 1518 1520 1522 1523 1525 1526 1527 1528 1528 1529 1529 1529 1530 1530 1530 1530 1530 1529 1529 1528 1528 1527 1526 1526 1525 1524 1524 1524 1524 1524
1509 1504 1506 1509 1517 1524 1522 1530 1523 1510 1510 1505 1504 1504 1506 1508 1510 1512 1514 1516 1518 1520 1522 1523 1525 1526 1526 1527 1528 1528 1528 1529 1529 1529 1529 1529 1528 1528 1527 1527 1526 1526 1525 1525 1524 1523 1523 1524 1524
1502 1506 1510 1517 1524 1534 1523 1529 1525 1513 1506 1501 1501 1502 1504 1506 1508 1510 1512 1515 1517 1519 1521 1522 1523 1524 1525 1526 1527 1527 1527 1528 1528 1528 1528 1528 1527 1527 1527 1526 1526 1525 1524 1524 1523 1523 1523 1523 1523
1505 1521 1536 1537 1542 1537 1519 1523 1519 1502 1497 1496 1497 1499 1502 1504 1506 1508 1510 1512 1515 1517 1519 1521 1522 1523 1524 1525 1525 1526 1526 1527 1527 1527 1527 1526 1526 1526 1526 1525 1525 1524 1524 1523 1523 1522 1522 1522 1523
1508 1518 1536 1544 1544 1535 1520 1522 1511 1498 1495 1495 1496 1498 1500 1502 1504 1507 1509 1511 1514 1516 1518 1519 1520 1521 1522 1523 1524 1524 1525 1525 1526 1526 1526 1525 1525 1525 1524 1524 1524 1523 1523 1522 1522 1522 1522 1522 1522
1508 1515 1515 1528 1530 1535 1528 1517 1506 1499 1498 1498 1498 1499 1500 1502 1504 1505 1507 1510 1513 1515 1516 1518 1519 1520 1521 1521 1522 1523 1523 1524 1524 1524 1524 1524 1523 1523 1523 1523 1522 1522 1521 1521 1521 1521 1521 1521 1521
1501 1507 1520 1527 1536 1541 1530 1523 1519 1507 1503 1501 1500 1500 1500 1501 1503 1504 1506 1509 1511 1513 1515 1516 1517 1518 1519 1520 1520 1521 1521 1522 1522 1522 1522 1522 1522 1521 1521 1521 1520 1520 1520 1520 1520 1519 1520 1519 1519
1504 1508 1515 1526 1529 1538 1540 1529 1504 1502 1500 1501 1500 1500 1500 1500 1501 1503 1505 1507 1510 1512 1513 1514 1515 1516 1517 1518 1518 1519 1519 1519 1520 1520 1520 1520 1519 1519 1519 1519 1518 1518 1518 1518 1518 1518 1518 1518 1518
1501 1505 1513 1526 1528 1530 1535 1527 1500 1498 1498 1499 1499 1499 1499 1500 1501 1502 1504 1506 1508 1510 1511 1512 1513 1514 1514 1515 1516 1517 1517 1517 1517 1517 1517 1517 1517 1517 1516 1516 1516 1516 1516 1516 1516 1516 1516 1516 1516